| time (UTC) | temp F | wind direction | speed knots | gust knots | rain 1hr in | rain 24hr in | rain mn in | humidity % | barometer mb |
| 20260508194844 | 54 | 225 | 13.0 | 20.9 | 0.00 | 0.00 | 0.00 | 31 | 1007.7 |
| 20260508194334 | 55 | 225 | 13.9 | 20.9 | 0.00 | 0.00 | 0.00 | 31 | 1007.3 |
| 20260508193824 | 55 | 225 | 14.8 | 20.9 | 0.00 | 0.00 | 0.00 | 30 | 1007.1 |
| 20260508193314 | 55 | 248 | 12.2 | 21.7 | 0.00 | 0.00 | 0.00 | 32 | 1007.3 |
| 20260508192807 | 55 | 225 | 17.4 | 21.7 | 0.00 | 0.00 | 0.00 | 30 | 1007.3 |
| 20260508192257 | 55 | 248 | 14.8 | 23.5 | 0.00 | 0.00 | 0.00 | 29 | 1007.3 |
| 20260508191746 | 56 | 248 | 14.8 | 25.2 | 0.00 | 0.00 | 0.00 | 28 | 1007.4 |
| 20260508191237 | 56 | 248 | 17.4 | 25.2 | 0.00 | 0.00 | 0.00 | 27 | 1007.5 |
| 20260508190728 | 56 | 248 | 17.4 | 23.5 | 0.00 | 0.00 | 0.00 | 27 | 1007.5 |
| 20260508190217 | 57 | 225 | 15.6 | 23.5 | 0.00 | 0.00 | 0.00 | 28 | 1007.3 |
| 20260508185705 | 57 | 225 | 18.2 | 25.2 | 0.00 | 0.00 | 0.00 | 27 | 1007.2 |
| 20260508185156 | 57 | 248 | 19.1 | 26.1 | 0.00 | 0.00 | 0.00 | 27 | 1007.7 |
| 20260508184646 | 57 | 248 | 20.0 | 26.1 | 0.00 | 0.00 | 0.00 | 28 | 1007.4 |
| 20260508184136 | 57 | 225 | 17.4 | 31.3 | 0.00 | 0.00 | 0.00 | 28 | 1007.5 |
| 20260508183625 | 56 | 248 | 20.0 | 31.3 | 0.00 | 0.00 | 0.00 | 29 | 1007.5 |
| 20260508183115 | 57 | 270 | 19.1 | 26.1 | 0.00 | 0.00 | 0.00 | 29 | 1007.6 |
| 20260508182605 | 58 | 248 | 13.9 | 23.5 | 0.00 | 0.00 | 0.00 | 32 | 1007.5 |
| 20260508182055 | 58 | 225 | 12.2 | 25.2 | 0.00 | 0.00 | 0.00 | 31 | 1007.5 |
| 20260508181545 | 57 | 248 | 16.5 | 25.2 | 0.00 | 0.00 | 0.00 | 32 | 1007.6 |
| 20260508181035 | 57 | 248 | 14.8 | 23.5 | 0.00 | 0.00 | 0.00 | 32 | 1007.4 |
| 20260508180525 | 57 | 248 | 18.2 | 23.5 | 0.00 | 0.00 | 0.00 | 33 | 1007.5 |
| 20260508180014 | 57 | 225 | 15.6 | 23.5 | 0.00 | 0.00 | 0.00 | 31 | 1007.6 |
| 20260508175504 | 57 | 225 | 14.8 | 23.5 | 0.00 | 0.00 | 0.00 | 33 | 1007.7 |
| 20260508174954 | 57 | 248 | 16.5 | 25.2 | 0.00 | 0.00 | 0.00 | 32 | 1007.6 |
| 20260508174443 | 57 | 248 | 14.8 | 25.2 | 0.00 | 0.00 | 0.00 | 33 | 1007.7 |
| 20260508173934 | 57 | 248 | 17.4 | 25.2 | 0.00 | 0.00 | 0.00 | 34 | 1007.8 |
| 20260508173424 | 57 | 225 | 20.0 | 26.1 | 0.00 | 0.00 | 0.00 | 33 | 1007.6 |
| 20260508172913 | 57 | 248 | 20.0 | 26.1 | 0.00 | 0.00 | 0.00 | 34 | 1007.8 |
| 20260508172400 | 57 | 248 | 18.2 | 26.1 | 0.00 | 0.00 | 0.00 | 34 | 1007.7 |
| 20260508171850 | 57 | 248 | 18.2 | 23.5 | 0.00 | 0.00 | 0.00 | 34 | 1007.7 |
| 20260508171339 | 56 | 248 | 13.9 | 26.9 | 0.00 | 0.00 | 0.00 | 35 | 1007.8 |
| 20260508170829 | 56 | 248 | 18.2 | 26.9 | 0.00 | 0.00 | 0.00 | 35 | 1008.4 |
| 20260508170319 | 56 | 248 | 16.5 | 26.1 | 0.00 | 0.00 | 0.00 | 38 | 1008.2 |
| 20260508165809 | 56 | 248 | 18.2 | 26.9 | 0.00 | 0.00 | 0.00 | 38 | 1008.4 |
| 20260508165259 | 56 | 225 | 14.8 | 26.9 | 0.00 | 0.00 | 0.00 | 38 | 1008.3 |
| 20260508164748 | 57 | 225 | 14.8 | 23.5 | 0.00 | 0.00 | 0.00 | 36 | 1008.4 |
| 20260508164238 | 56 | 248 | 18.2 | 25.2 | 0.00 | 0.00 | 0.00 | 37 | 1008.3 |
| 20260508163728 | 56 | 225 | 15.6 | 25.2 | 0.00 | 0.00 | 0.00 | 37 | 1008.3 |
| 20260508163218 | 57 | 248 | 15.6 | 23.5 | 0.00 | 0.00 | 0.00 | 37 | 1008.2 |
| 20260508162709 | 57 | 248 | 14.8 | 23.5 | 0.00 | 0.00 | 0.00 | 38 | 1008.3 |
| 20260508162158 | 56 | 248 | 18.2 | 26.1 | 0.00 | 0.00 | 0.00 | 37 | 1008.3 |
| 20260508161647 | 58 | 248 | 18.2 | 26.1 | 0.00 | 0.00 | 0.00 | 36 | 1008.7 |
| 20260508161138 | 56 | 248 | 15.6 | 27.8 | 0.00 | 0.00 | 0.00 | 38 | 1008.9 |
| 20260508160628 | 56 | 248 | 20.9 | 27.8 | 0.00 | 0.00 | 0.00 | 37 | 1008.6 |
| 20260508160118 | 55 | 225 | 20.0 | 26.1 | 0.00 | 0.00 | 0.00 | 39 | 1008.5 |
| 20260508155607 | 56 | 225 | 20.0 | 26.9 | 0.00 | 0.00 | 0.00 | 40 | 1008.8 |
| 20260508155057 | 55 | 248 | 17.4 | 26.9 | 0.00 | 0.00 | 0.00 | 40 | 1008.8 |
| 20260508154547 | 55 | 248 | 18.2 | 26.1 | 0.00 | 0.00 | 0.00 | 40 | 1008.8 |
| 20260508154037 | 55 | 248 | 20.9 | 26.1 | 0.00 | 0.00 | 0.00 | 40 | 1008.9 |
| 20260508153526 | 56 | 248 | 15.6 | 26.1 | 0.00 | 0.00 | 0.00 | 41 | 1009.1 |
| 20260508153016 | 55 | 225 | 18.2 | 26.1 | 0.00 | 0.00 | 0.00 | 40 | 1009.1 |
| 20260508152508 | 55 | 248 | 16.5 | 27.8 | 0.00 | 0.00 | 0.00 | 41 | 1009.0 |
| 20260508151956 | 54 | 225 | 14.8 | 27.8 | 0.00 | 0.00 | 0.00 | 42 | 1009.1 |
| 20260508151446 | 55 | 225 | 14.8 | 26.9 | 0.00 | 0.00 | 0.00 | 42 | 1009.2 |
| 20260508150936 | 54 | 225 | 22.6 | 26.9 | 0.00 | 0.00 | 0.00 | 42 | 1009.2 |
| 20260508150426 | 54 | 225 | 19.1 | 25.2 | 0.00 | 0.00 | 0.00 | 42 | 1009.2 |
| 20260508145916 | 53 | 203 | 20.0 | 25.2 | 0.00 | 0.00 | 0.00 | 43 | 1009.1 |
| 20260508145406 | 53 | 225 | 18.2 | 26.1 | 0.00 | 0.00 | 0.00 | 44 | 1009.5 |
| 20260508144855 | 53 | 225 | 20.0 | 27.8 | 0.00 | 0.00 | 0.00 | 43 | 1009.4 |
| 20260508144345 | 54 | 248 | 20.0 | 27.8 | 0.00 | 0.00 | 0.00 | 43 | 1009.3 |
| 20260508143835 | 53 | 225 | 20.0 | 23.5 | 0.00 | 0.00 | 0.00 | 45 | 1009.4 |
| 20260508143324 | 53 | 225 | 20.0 | 26.9 | 0.00 | 0.00 | 0.00 | 45 | 1009.6 |
| 20260508142814 | 53 | 203 | 18.2 | 26.9 | 0.00 | 0.00 | 0.00 | 46 | 1009.8 |
| 20260508142306 | 52 | 225 | 19.1 | 26.1 | 0.00 | 0.00 | 0.00 | 46 | 1009.4 |
| 20260508141754 | 52 | 248 | 19.1 | 27.8 | 0.00 | 0.00 | 0.00 | 46 | 1009.7 |
| 20260508141247 | 51 | 248 | 20.9 | 27.8 | 0.00 | 0.00 | 0.00 | 47 | 1009.6 |
| 20260508140737 | 51 | 225 | 20.0 | 26.9 | 0.00 | 0.00 | 0.00 | 47 | 1009.7 |
| 20260508140227 | 51 | 225 | 20.0 | 29.5 | 0.00 | 0.00 | 0.00 | 47 | 1009.8 |
| 20260508135718 | 51 | 225 | 20.0 | 31.3 | 0.00 | 0.00 | 0.00 | 46 | 1009.9 |
| 20260508135207 | 51 | 225 | 20.9 | 31.3 | 0.00 | 0.00 | 0.00 | 47 | 1009.9 |
| 20260508134657 | 50 | 225 | 19.1 | 31.3 | 0.00 | 0.00 | 0.00 | 47 | 1010.0 |
| 20260508134147 | 50 | 203 | 21.7 | 31.3 | 0.00 | 0.00 | 0.00 | 47 | 1009.7 |
| 20260508133637 | 50 | 203 | 18.2 | 27.8 | 0.00 | 0.00 | 0.00 | 47 | 1010.0 |
| 20260508133127 | 50 | 225 | 21.7 | 29.5 | 0.00 | 0.00 | 0.00 | 47 | 1010.1 |
| 20260508132618 | 50 | 225 | 22.6 | 29.5 | 0.00 | 0.00 | 0.00 | 47 | 1009.9 |
| 20260508132108 | 50 | 248 | 18.2 | 26.9 | 0.00 | 0.00 | 0.00 | 48 | 1010.0 |
| 20260508131556 | 50 | 225 | 19.1 | 29.5 | 0.00 | 0.00 | 0.00 | 48 | 1010.0 |
| 20260508131045 | 49 | 225 | 21.7 | 29.5 | 0.00 | 0.00 | 0.00 | 49 | 1010.0 |
| 20260508130541 | 49 | 225 | 20.0 | 29.5 | 0.00 | 0.00 | 0.00 | 50 | 1009.6 |
| 20260508130034 | 49 | 225 | 17.4 | 25.2 | 0.00 | 0.00 | 0.00 | 50 | 1009.6 |
| 20260508125516 | 49 | 225 | 18.2 | 25.2 | 0.00 | 0.00 | 0.00 | 50 | 1009.7 |
| 20260508125005 | 48 | 203 | 18.2 | 26.9 | 0.00 | 0.00 | 0.00 | 50 | 1009.5 |
| 20260508124455 | 48 | 203 | 19.1 | 26.9 | 0.00 | 0.00 | 0.00 | 52 | 1009.7 |
| 20260508123945 | 48 | 225 | 15.6 | 25.2 | 0.00 | 0.00 | 0.00 | 53 | 1009.4 |
| 20260508123435 | 47 | 225 | 18.2 | 23.5 | 0.00 | 0.00 | 0.00 | 54 | 1009.3 |
| 20260508122924 | 47 | 225 | 16.5 | 23.5 | 0.00 | 0.00 | 0.00 | 55 | 1009.4 |
| 20260508122415 | 47 | 248 | 13.0 | 25.2 | 0.00 | 0.00 | 0.00 | 57 | 1009.3 |
| 20260508121904 | 46 | 203 | 18.2 | 25.2 | 0.00 | 0.00 | 0.00 | 56 | 1009.1 |
| 20260508121353 | 46 | 225 | 14.8 | 23.5 | 0.00 | 0.00 | 0.00 | 58 | 1009.3 |
| 20260508120844 | 46 | 225 | 13.9 | 23.5 | 0.00 | 0.00 | 0.00 | 59 | 1009.1 |
| 20260508120331 | 46 | 225 | 14.8 | 20.0 | 0.00 | 0.00 | 0.00 | 59 | 1009.2 |
| 20260508115821 | 46 | 225 | 13.9 | 20.9 | 0.00 | 0.00 | 0.00 | 60 | 1009.1 |
| 20260508115310 | 45 | 248 | 13.9 | 20.9 | 0.00 | 0.00 | 0.00 | 60 | 1009.3 |
| 20260508114800 | 45 | 203 | 13.0 | 19.1 | 0.00 | 0.00 | 0.00 | 61 | 1009.3 |
| 20260508114252 | 45 | 225 | 13.0 | 19.1 | 0.00 | 0.00 | 0.00 | 61 | 1009.1 |
| 20260508113740 | 45 | 248 | 15.6 | 20.0 | 0.00 | 0.00 | 0.00 | 61 | 1009.4 |
| 20260508113230 | 45 | 225 | 13.0 | 20.0 | 0.00 | 0.00 | 0.00 | 62 | 1009.1 |
| 20260508112721 | 45 | 225 | 14.8 | 20.0 | 0.00 | 0.00 | 0.00 | 62 | 1008.8 |
| 20260508112209 | 44 | 225 | 11.3 | 20.0 | 0.00 | 0.00 | 0.00 | 63 | 1009.1 |
| 20260508111700 | 44 | 225 | 13.9 | 18.2 | 0.00 | 0.00 | 0.00 | 63 | 1009.0 |
| 20260508111149 | 44 | 248 | 13.0 | 20.0 | 0.00 | 0.00 | 0.00 | 64 | 1008.8 |
| 20260508110639 | 44 | 225 | 13.0 | 21.7 | 0.00 | 0.00 | 0.00 | 64 | 1008.9 |
| 20260508110129 | 44 | 225 | 14.8 | 21.7 | 0.00 | 0.00 | 0.00 | 63 | 1008.8 |
| 20260508105619 | 45 | 225 | 14.8 | 20.9 | 0.00 | 0.00 | 0.00 | 63 | 1008.7 |
| 20260508104604 | 45 | 225 | 14.8 | 21.7 | 0.00 | 0.00 | 0.00 | 64 | 1008.8 |
| 20260508104049 | 44 | 225 | 14.8 | 21.7 | 0.00 | 0.00 | 0.00 | 64 | 1008.8 |
| 20260508103539 | 45 | 225 | 17.4 | 21.7 | 0.00 | 0.00 | 0.00 | 63 | 1008.7 |
| 20260508103028 | 44 | 225 | 15.6 | 21.7 | 0.00 | 0.00 | 0.00 | 63 | 1008.6 |
| 20260508102518 | 44 | 225 | 14.8 | 20.9 | 0.00 | 0.00 | 0.00 | 64 | 1008.5 |
| 20260508102008 | 44 | 225 | 15.6 | 20.0 | 0.00 | 0.00 | 0.00 | 63 | 1008.3 |
| 20260508101457 | 44 | 225 | 13.0 | 23.5 | 0.00 | 0.00 | 0.00 | 64 | 1008.6 |
| 20260508100947 | 44 | 225 | 13.9 | 23.5 | 0.00 | 0.00 | 0.00 | 63 | 1008.4 |
| 20260508100437 | 45 | 225 | 15.6 | 21.7 | 0.00 | 0.00 | 0.00 | 62 | 1008.2 |
| 20260508095927 | 45 | 225 | 14.8 | 21.7 | 0.00 | 0.00 | 0.00 | 62 | 1008.2 |
| 20260508095418 | 45 | 203 | 14.8 | 21.7 | 0.00 | 0.00 | 0.00 | 62 | 1005.6 |
| 20260508094908 | 45 | 248 | 14.8 | 21.7 | 0.00 | 0.00 | 0.00 | 62 | 1008.2 |
| 20260508094357 | 45 | 225 | 14.8 | 21.7 | 0.00 | 0.00 | 0.00 | 61 | 1008.3 |
| 20260508093846 | 45 | 248 | 13.0 | 20.9 | 0.00 | 0.00 | 0.00 | 62 | 1008.0 |
| 20260508093336 | 45 | 248 | 13.0 | 20.9 | 0.00 | 0.00 | 0.00 | 61 | 1008.3 |
| 20260508092826 | 45 | 225 | 15.6 | 20.9 | 0.00 | 0.00 | 0.00 | 61 | 1008.0 |
| 20260508092316 | 45 | 248 | 13.9 | 20.9 | 0.00 | 0.00 | 0.00 | 62 | 1008.1 |
| 20260508091806 | 44 | 248 | 14.8 | 20.0 | 0.00 | 0.00 | 0.00 | 62 | 1008.0 |
| 20260508091256 | 44 | 248 | 14.8 | 20.0 | 0.00 | 0.00 | 0.00 | 63 | 1008.0 |
| 20260508090746 | 44 | 248 | 13.0 | 18.2 | 0.00 | 0.00 | 0.00 | 64 | 1007.9 |
| 20260508090236 | 44 | 225 | 11.3 | 18.2 | 0.00 | 0.00 | 0.00 | 64 | 1008.1 |
| 20260508085726 | 44 | 225 | 13.0 | 19.1 | 0.00 | 0.00 | 0.00 | 63 | 1007.8 |
| 20260508085220 | 44 | 225 | 13.0 | 19.1 | 0.00 | 0.00 | 0.00 | 62 | 1007.8 |
| 20260508084709 | 44 | 248 | 12.2 | 18.2 | 0.00 | 0.00 | 0.00 | 63 | 1007.7 |
| 20260508084159 | 45 | 248 | 11.3 | 19.1 | 0.00 | 0.00 | 0.00 | 63 | 1007.7 |
| 20260508083648 | 45 | 248 | 12.2 | 19.1 | 0.00 | 0.00 | 0.00 | 62 | 1007.7 |
| 20260508083139 | 45 | 248 | 13.0 | 18.2 | 0.00 | 0.00 | 0.00 | 62 | 1007.8 |
| 20260508082628 | 45 | 248 | 13.0 | 18.2 | 0.00 | 0.00 | 0.00 | 62 | 1007.5 |
| 20260508082119 | 44 | 248 | 12.2 | 17.4 | 0.00 | 0.00 | 0.00 | 63 | 1007.7 |
| 20260508081608 | 44 | 225 | 13.0 | 15.6 | 0.00 | 0.00 | 0.00 | 64 | 1007.5 |
| 20260508081057 | 44 | 225 | 9.6 | 15.6 | 0.00 | 0.00 | 0.00 | 65 | 1007.5 |
| 20260508080548 | 44 | 203 | 11.3 | 15.6 | 0.00 | 0.00 | 0.00 | 64 | 1007.9 |
| 20260508080051 | 44 | 225 | 9.6 | 14.8 | 0.00 | 0.00 | 0.00 | 64 | 1007.4 |
| 20260508075528 | 44 | 248 | 8.7 | 14.8 | 0.00 | 0.00 | 0.00 | 65 | 1007.6 |
| 20260508075020 | 44 | 225 | 10.4 | 13.0 | 0.00 | 0.00 | 0.00 | 64 | 1007.5 |
| 20260508074506 | 44 | 225 | 9.6 | 13.9 | 0.00 | 0.00 | 0.00 | 65 | 1007.5 |
| 20260508073957 | 43 | 248 | 8.7 | 13.9 | 0.00 | 0.00 | 0.00 | 65 | 1007.4 |
| 20260508073447 | 43 | 225 | 9.6 | 13.9 | 0.00 | 0.00 | 0.00 | 65 | 1007.7 |
| 20260508072937 | 43 | 248 | 8.7 | 14.8 | 0.00 | 0.00 | 0.00 | 65 | 1007.6 |
| 20260508072426 | 44 | 248 | 12.2 | 17.4 | 0.00 | 0.00 | 0.00 | 63 | 1007.3 |
| 20260508072142 | 44 | 248 | 13.0 | 18.2 | 0.00 | 0.00 | 0.00 | 63 | 1007.5 |
| 20260508071406 | 44 | 225 | 12.2 | 18.2 | 0.00 | 0.00 | 0.00 | 63 | 1007.7 |
| 20260508070856 | 44 | 225 | 13.0 | 18.2 | 0.00 | 0.00 | 0.00 | 62 | 1007.8 |
| 20260508070346 | 45 | 225 | 14.8 | 18.2 | 0.00 | 0.00 | 0.00 | 61 | 1007.7 |
| 20260508065836 | 45 | 248 | 12.2 | 18.2 | 0.00 | 0.00 | 0.00 | 62 | 1007.8 |
| 20260508065325 | 45 | 225 | 13.0 | 20.0 | 0.00 | 0.00 | 0.00 | 61 | 1007.6 |
| 20260508064816 | 45 | 248 | 14.8 | 20.0 | 0.00 | 0.00 | 0.00 | 61 | 1007.7 |
| 20260508064305 | 45 | 248 | 13.9 | 18.2 | 0.00 | 0.00 | 0.00 | 61 | 1007.6 |
| 20260508063755 | 45 | 248 | 13.0 | 18.2 | 0.00 | 0.00 | 0.00 | 62 | 1007.6 |
| 20260508063245 | 44 | 225 | 12.2 | 18.2 | 0.00 | 0.00 | 0.00 | 63 | 1007.6 |
| 20260508062747 | 44 | 248 | 13.0 | 18.2 | 0.00 | 0.00 | 0.00 | 63 | 1007.6 |
| 20260508062224 | 44 | 248 | 13.0 | 19.1 | 0.00 | 0.00 | 0.00 | 64 | 1007.6 |
| 20260508061714 | 44 | 225 | 12.2 | 19.1 | 0.00 | 0.00 | 0.00 | 63 | 1007.7 |
| 20260508061217 | 44 | 248 | 14.8 | 17.4 | 0.00 | 0.00 | 0.00 | 63 | 1007.6 |
| 20260508060655 | 44 | 248 | 13.0 | 17.4 | 0.00 | 0.00 | 0.00 | 64 | 1007.9 |
| 20260508060144 | 44 | 225 | 12.2 | 17.4 | 0.00 | 0.00 | 0.00 | 65 | 1007.9 |
| 20260508055634 | 44 | 248 | 9.6 | 13.0 | 0.00 | 0.00 | 0.00 | 65 | 1008.0 |
| 20260508055124 | 44 | 225 | 9.6 | 13.0 | 0.00 | 0.00 | 0.00 | 66 | 1008.1 |
| 20260508054614 | 43 | 248 | 8.7 | 15.6 | 0.00 | 0.00 | 0.00 | 67 | 1007.9 |
| 20260508054103 | 44 | 225 | 9.6 | 15.6 | 0.00 | 0.00 | 0.00 | 65 | 1008.2 |
| 20260508053553 | 44 | 270 | 9.6 | 13.0 | 0.00 | 0.00 | 0.00 | 67 | 1008.1 |
| 20260508053047 | 43 | 225 | 10.4 | 12.2 | 0.00 | 0.00 | 0.00 | 68 | 1007.8 |
| 20260508052533 | 43 | 225 | 7.8 | 13.0 | 0.00 | 0.00 | 0.00 | 69 | 1008.0 |
| 20260508052027 | 44 | 248 | 9.6 | 13.0 | 0.00 | 0.00 | 0.00 | 69 | 1008.1 |
| 20260508051522 | 44 | 248 | 9.6 | 12.2 | 0.00 | 0.00 | 0.00 | 70 | 1008.1 |
| 20260508051003 | 43 | 225 | 7.8 | 11.3 | 0.00 | 0.00 | 0.00 | 72 | 1007.9 |
| 20260508050452 | 43 | 248 | 7.0 | 11.3 | 0.00 | 0.00 | 0.00 | 72 | 1008.0 |
| 20260508045943 | 43 | 248 | 7.0 | 11.3 | 0.00 | 0.00 | 0.00 | 73 | 1008.1 |
| 20260508045432 | 44 | 248 | 7.0 | 12.2 | 0.00 | 0.00 | 0.00 | 73 | 1008.0 |
| 20260508044922 | 44 | 248 | 7.0 | 12.2 | 0.00 | 0.00 | 0.00 | 73 | 1008.0 |
| 20260508044413 | 44 | 225 | 8.7 | 13.9 | 0.00 | 0.00 | 0.00 | 74 | 1007.9 |
| 20260508043902 | 44 | 225 | 8.7 | 13.9 | 0.00 | 0.00 | 0.00 | 74 | 1007.9 |
| 20260508043351 | 45 | 248 | 9.6 | 14.8 | 0.00 | 0.00 | 0.00 | 74 | 1008.0 |
| 20260508042841 | 44 | 225 | 8.7 | 14.8 | 0.00 | 0.00 | 0.00 | 76 | 1008.2 |
| 20260508042332 | 45 | 248 | 9.6 | 14.8 | 0.00 | 0.00 | 0.00 | 75 | 1008.0 |
| 20260508041823 | 45 | 225 | 9.6 | 14.8 | 0.00 | 0.00 | 0.00 | 75 | 1008.1 |
| 20260508041314 | 46 | 225 | 12.2 | 14.8 | 0.00 | 0.00 | 0.00 | 75 | 1007.9 |
| 20260508040801 | 46 | 225 | 12.2 | 13.9 | 0.00 | 0.00 | 0.00 | 76 | 1008.0 |
| 20260508040250 | 45 | 225 | 11.3 | 15.6 | 0.00 | 0.00 | 0.00 | 78 | 1008.0 |
| 20260508035744 | 45 | 225 | 9.6 | 15.6 | 0.00 | 0.00 | 0.00 | 78 | 1007.8 |
| 20260508035231 | 46 | 225 | 11.3 | 17.4 | 0.00 | 0.00 | 0.00 | 77 | 1008.0 |
| 20260508034721 | 46 | 225 | 10.4 | 17.4 | 0.00 | 0.00 | 0.00 | 77 | 1007.8 |
| 20260508034211 | 46 | 225 | 10.4 | 14.8 | 0.00 | 0.00 | 0.00 | 78 | 1008.0 |
| 20260508033701 | 46 | 225 | 11.3 | 17.4 | 0.00 | 0.00 | 0.00 | 79 | 1007.9 |
| 20260508033150 | 46 | 248 | 10.4 | 17.4 | 0.00 | 0.00 | 0.00 | 79 | 1007.8 |
| 20260508032640 | 46 | 248 | 10.4 | 13.9 | 0.00 | 0.00 | 0.00 | 79 | 1007.9 |
| 20260508032130 | 46 | 225 | 9.6 | 13.9 | 0.00 | 0.00 | 0.00 | 80 | 1007.9 |
| 20260508031620 | 46 | 248 | 9.6 | 13.0 | 0.00 | 0.00 | 0.00 | 81 | 1007.7 |
| 20260508031109 | 46 | 248 | 9.6 | 13.0 | 0.00 | 0.00 | 0.00 | 81 | 1007.7 |
| 20260508030612 | 46 | 248 | 8.7 | 13.0 | 0.00 | 0.00 | 0.00 | 80 | 1007.8 |
| 20260508025539 | 45 | 248 | 8.7 | 12.2 | 0.00 | 0.00 | 0.00 | 82 | 1007.6 |
| 20260508025034 | 45 | 248 | 7.0 | 11.3 | 0.00 | 0.00 | 0.00 | 82 | 1007.7 |
| 20260508024520 | 45 | 248 | 7.0 | 9.6 | 0.00 | 0.00 | 0.00 | 83 | 1007.9 |
| 20260508024009 | 44 | 248 | 5.2 | 7.8 | 0.00 | 0.00 | 0.00 | 85 | 1007.9 |
| 20260508023459 | 44 | 248 | 6.1 | 7.8 | 0.00 | 0.00 | 0.00 | 84 | 1007.8 |
| 20260508022949 | 44 | 225 | 5.2 | 7.0 | 0.00 | 0.00 | 0.00 | 85 | 1007.9 |
| 20260508022438 | 44 | 248 | 4.3 | 7.0 | 0.00 | 0.00 | 0.00 | 85 | 1007.6 |
| 20260508021929 | 44 | 248 | 4.3 | 7.0 | 0.00 | 0.00 | 0.00 | 85 | 1007.5 |
| 20260508021420 | 44 | 248 | 3.5 | 6.1 | 0.00 | 0.00 | 0.00 | 86 | 1007.6 |
| 20260508020908 | 44 | 248 | 3.5 | 7.0 | 0.00 | 0.00 | 0.00 | 85 | 1007.7 |
| 20260508020357 | 44 | 248 | 3.5 | 7.0 | 0.00 | 0.00 | 0.00 | 84 | 1007.5 |
| 20260508015848 | 46 | 248 | 3.5 | 6.1 | 0.00 | 0.00 | 0.00 | 84 | 1007.6 |
| 20260508015337 | 45 | 248 | 3.5 | 5.2 | 0.00 | 0.00 | 0.00 | 85 | 1007.4 |
| 20260508014827 | 44 | 225 | 3.5 | 6.1 | 0.00 | 0.00 | 0.00 | 86 | 1007.3 |
| 20260508014319 | 43 | 270 | 2.6 | 6.1 | 0.00 | 0.00 | 0.00 | 87 | 1007.4 |
| 20260508013257 | 43 | 270 | 1.7 | 3.5 | 0.00 | 0.00 | 0.00 | 86 | 1007.5 |
| 20260508012752 | 44 | 270 | 1.7 | 5.2 | 0.00 | 0.00 | 0.00 | 85 | 1007.4 |
| 20260508012236 | 44 | 270 | 1.7 | 5.2 | 0.00 | 0.00 | 0.00 | 84 | 1007.5 |
| 20260508011726 | 46 | 248 | 2.6 | 3.5 | 0.00 | 0.00 | 0.00 | 84 | 1007.2 |
| 20260508011216 | 47 | 248 | 1.7 | 3.5 | 0.00 | 0.00 | 0.00 | 83 | 1007.4 |
| 20260508010706 | 47 | 248 | 1.7 | 3.5 | 0.00 | 0.00 | 0.00 | 82 | 1007.6 |
| 20260508010157 | 49 | 248 | 2.6 | 6.1 | 0.00 | 0.00 | 0.00 | 80 | 1007.6 |
| 20260508005656 | 49 | 248 | 2.6 | 6.1 | 0.00 | 0.00 | 0.00 | 80 | 1007.6 |
| 20260508005135 | 50 | 248 | 3.5 | 5.2 | 0.00 | 0.00 | 0.00 | 79 | 1007.7 |
| 20260508004626 | 50 | 248 | 3.5 | 3.5 | 0.00 | 0.00 | 0.00 | 80 | 1007.6 |
| 20260508004115 | 51 | 225 | 2.6 | 3.5 | 0.00 | 0.00 | 0.00 | 78 | 1007.5 |
| 20260508003607 | 51 | 225 | 3.5 | 5.2 | 0.00 | 0.00 | 0.00 | 77 | 1007.7 |
| 20260508003055 | 52 | 225 | 3.5 | 7.8 | 0.00 | 0.00 | 0.00 | 76 | 1007.9 |
| 20260508002545 | 52 | 225 | 3.5 | 7.8 | 0.00 | 0.00 | 0.00 | 75 | 1007.9 |
| 20260508002035 | 53 | 203 | 4.3 | 7.8 | 0.00 | 0.00 | 0.00 | 74 | 1007.6 |
| 20260508001529 | 53 | 248 | 5.2 | 7.8 | 0.00 | 0.00 | 0.00 | 74 | 1007.8 |
| 20260508000504 | 53 | 225 | 5.2 | 9.6 | 0.00 | 0.00 | 0.00 | 74 | 1007.8 |
| 20260507235955 | 53 | 225 | 5.2 | 7.0 | 0.00 | 0.00 | 0.00 | 74 | 1007.8 |
| 20260507235444 | 53 | 225 | 5.2 | 9.6 | 0.00 | 0.00 | 0.00 | 73 | 1007.5 |
| 20260507234933 | 53 | 225 | 4.3 | 9.6 | 0.00 | 0.00 | 0.00 | 74 | 1007.6 |
| 20260507234424 | 53 | 203 | 7.0 | 9.6 | 0.00 | 0.00 | 0.00 | 73 | 1007.3 |
| 20260507233914 | 52 | 203 | 4.3 | 9.6 | 0.00 | 0.00 | 0.00 | 74 | 1007.3 |
| 20260507233404 | 52 | 225 | 5.2 | 9.6 | 0.00 | 0.00 | 0.00 | 73 | 1007.4 |
| 20260507232854 | 53 | 225 | 7.8 | 13.0 | 0.00 | 0.00 | 0.00 | 73 | 1007.3 |
| 20260507232343 | 53 | 203 | 7.0 | 13.0 | 0.00 | 0.00 | 0.00 | 72 | 1007.0 |
| 20260507231833 | 54 | 203 | 8.7 | 13.9 | 0.00 | 0.00 | 0.00 | 71 | 1006.8 |
| 20260507231324 | 55 | 203 | 9.6 | 13.9 | 0.00 | 0.00 | 0.00 | 70 | 1006.7 |
| 20260507230813 | 55 | 203 | 8.7 | 15.6 | 0.00 | 0.00 | 0.00 | 70 | 1007.0 |
| 20260507230302 | 55 | 203 | 9.6 | 15.6 | 0.00 | 0.00 | 0.00 | 70 | 1007.0 |
| 20260507225753 | 55 | 203 | 11.3 | 19.1 | 0.00 | 0.00 | 0.00 | 70 | 1006.6 |
| 20260507225242 | 55 | 203 | 9.6 | 20.9 | 0.00 | 0.00 | 0.00 | 69 | 1006.7 |
| 20260507224732 | 55 | 203 | 14.8 | 20.9 | 0.00 | 0.00 | 0.00 | 68 | 1006.5 |
| 20260507224225 | 55 | 203 | 15.6 | 20.9 | 0.00 | 0.00 | 0.00 | 67 | 1006.5 |
| 20260507223711 | 55 | 203 | 11.3 | 17.4 | 0.00 | 0.00 | 0.00 | 67 | 1006.5 |
| 20260507223202 | 55 | 203 | 10.4 | 15.6 | 0.00 | 0.00 | 0.00 | 67 | 1006.4 |
| 20260507222651 | 54 | 203 | 9.6 | 14.8 | 0.00 | 0.00 | 0.00 | 66 | 1006.2 |
| 20260507222141 | 54 | 225 | 10.4 | 15.6 | 0.00 | 0.00 | 0.00 | 66 | 1006.1 |
| 20260507221631 | 54 | 203 | 9.6 | 15.6 | 0.00 | 0.00 | 0.00 | 65 | 1006.0 |
| 20260507221123 | 55 | 225 | 9.6 | 15.6 | 0.00 | 0.00 | 0.00 | 65 | 1006.0 |
| 20260507220611 | 55 | 225 | 11.3 | 15.6 | 0.00 | 0.00 | 0.00 | 64 | 1005.6 |
| 20260507215551 | 55 | 203 | 13.0 | 18.2 | 0.00 | 0.00 | 0.00 | 63 | 1005.7 |
| 20260507215040 | 55 | 203 | 13.0 | 18.2 | 0.00 | 0.00 | 0.00 | 63 | 1005.7 |
| 20260507214530 | 55 | 203 | 11.3 | 18.2 | 0.00 | 0.00 | 0.00 | 63 | 1005.5 |
| 20260507214030 | 56 | 225 | 10.4 | 20.9 | 0.00 | 0.00 | 0.00 | 62 | 1005.4 |
| 20260507213510 | 57 | 203 | 14.8 | 20.9 | 0.00 | 0.00 | 0.00 | 61 | 1005.4 |
| 20260507213000 | 56 | 225 | 14.8 | 20.9 | 0.00 | 0.00 | 0.00 | 61 | 1005.5 |
| 20260507212450 | 57 | 203 | 13.9 | 20.9 | 0.00 | 0.00 | 0.00 | 61 | 1005.3 |
| 20260507211940 | 57 | 225 | 14.8 | 23.5 | 0.00 | 0.00 | 0.00 | 60 | 1005.3 |
| 20260507211430 | 57 | 203 | 16.5 | 25.2 | 0.00 | 0.00 | 0.00 | 59 | 1005.2 |
| 20260507210922 | 58 | 225 | 19.1 | 26.1 | 0.00 | 0.00 | 0.00 | 58 | 1005.3 |
| 20260507210409 | 58 | 203 | 18.2 | 26.1 | 0.00 | 0.00 | 0.00 | 57 | 1005.3 |
| 20260507205858 | 59 | 203 | 18.2 | 27.8 | 0.00 | 0.00 | 0.00 | 57 | 1005.4 |
| 20260507205351 | 59 | 225 | 19.1 | 29.5 | 0.00 | 0.00 | 0.00 | 57 | 1005.6 |
| 20260507204839 | 59 | 225 | 21.7 | 29.5 | 0.00 | 0.00 | 0.00 | 57 | 1005.8 |
| 20260507204328 | 59 | 248 | 22.6 | 26.9 | 0.00 | 0.00 | 0.00 | 57 | 1005.7 |
| 20260507203819 | 59 | 203 | 17.4 | 23.5 | 0.00 | 0.00 | 0.00 | 58 | 1005.5 |
| 20260507203308 | 59 | 225 | 18.2 | 27.8 | 0.00 | 0.00 | 0.00 | 57 | 1005.3 |
| 20260507202758 | 59 | 225 | 16.5 | 29.5 | 0.00 | 0.00 | 0.00 | 57 | 1005.2 |
| 20260507202249 | 59 | 248 | 20.9 | 29.5 | 0.00 | 0.00 | 0.00 | 57 | 1005.3 |
| 20260507201738 | 60 | 225 | 20.0 | 29.5 | 0.00 | 0.00 | 0.00 | 56 | 1005.3 |
| 20260507201228 | 60 | 225 | 20.0 | 29.5 | 0.00 | 0.00 | 0.00 | 57 | 1005.0 |
| 20260507200720 | 59 | 225 | 14.8 | 26.9 | 0.00 | 0.00 | 0.00 | 57 | 1005.0 |
| 20260507200208 | 60 | 225 | 20.0 | 27.8 | 0.00 | 0.00 | 0.00 | 58 | 1004.9 |
| 20260507195657 | 59 | 225 | 17.4 | 27.8 | 0.00 | 0.00 | 0.00 | 58 | 1004.8 |